When you browse on this site, cookies collect data to enhance your experience and personalize the content and advertising you see.
Visit our Privacy Policy to learn more. By continuing to use the site, you agree to this use of cookies and data.
EN

Hourly Weather Munich

Today, 9 August, Sunday

Time Temperature Precipitation Wind Pressure Humidity
00:00 +20°C° 0 mm 1 mps 720 mmHg 81%
01:00 +20°C° 0 mm 1 mps 720 mmHg 84%
02:00 +20°C° 0 mm 1 mps 719 mmHg 85%
03:00 +17°C° 0 mm 0 mps 719 mmHg 86%
04:00 +17°C° 0 mm 0 mps 719 mmHg 87%
05:00 +18°C° 0 mm 0 mps 719 mmHg 85%
06:00 +19°C° 0 mm 0 mps 719 mmHg 83%
07:00 +20°C° 0 mm 0 mps 720 mmHg 79%
08:00 +22°C° 0 mm 0 mps 720 mmHg 73%
09:00 +25°C° 0 mm 1 mps 720 mmHg 66%
10:00 +27°C° 0 mm 1 mps 720 mmHg 60%
11:00 +28°C° 0 mm 2 mps 720 mmHg 57%
12:00 +29°C° 0 mm 2 mps 719 mmHg 54%
13:00 +30°C° 0 mm 3 mps 719 mmHg 52%
14:00 +30°C° 0 mm 3 mps 719 mmHg 52%
15:00 +30°C° 0 mm 2 mps 719 mmHg 52%
16:00 +30°C° 0 mm 2 mps 719 mmHg 53%
17:00 +28°C° 0 mm 2 mps 718 mmHg 59%
18:00 +26°C° 0 mm 2 mps 718 mmHg 66%
19:00 +25°C° 0 mm 1 mps 718 mmHg 72%
20:00 +24°C° 0 mm 1 mps 718 mmHg 74%
21:00 +22°C° 0 mm 1 mps 718 mmHg 76%
22:00 +21°C° 0 mm 1 mps 718 mmHg 78%
23:00 +21°C° 0 mm 1 mps 718 mmHg 80%

Tomorrow, 10 August, Monday

Time Temperature Precipitation Wind Pressure Humidity
00:00 +20°C° 0 mm 1 mps 718 mmHg 82%
01:00 +19°C° 0 mm 1 mps 718 mmHg 84%
02:00 +19°C° 0 mm 1 mps 717 mmHg 86%
03:00 +19°C° 0 mm 1 mps 717 mmHg 88%
04:00 +18°C° 0 mm 1 mps 717 mmHg 90%
05:00 +19°C° 0 mm 1 mps 717 mmHg 88%
06:00 +20°C° 0 mm 1 mps 717 mmHg 86%
07:00 +21°C° 0 mm 1 mps 717 mmHg 84%
08:00 +23°C° 0 mm 1 mps 717 mmHg 78%
09:00 +24°C° 0 mm 2 mps 717 mmHg 71%
10:00 +26°C° 0 mm 2 mps 717 mmHg 65%
11:00 +27°C° 0 mm 2 mps 717 mmHg 62%
12:00 +28°C° 0 mm 3 mps 717 mmHg 60%
13:00 +29°C° 0 mm 3 mps 717 mmHg 57%
14:00 +29°C° 0 mm 3 mps 717 mmHg 58%
15:00 +29°C° 0 mm 3 mps 717 mmHg 58%
16:00 +29°C° 0 mm 3 mps 717 mmHg 59%
17:00 +28°C° 0 mm 2 mps 717 mmHg 65%
18:00 +26°C° 0 mm 2 mps 717 mmHg 70%
19:00 +25°C° 0 mm 1 mps 716 mmHg 76%
20:00 +24°C° 0 mm 1 mps 717 mmHg 79%
21:00 +22°C° 0 mm 1 mps 717 mmHg 82%
22:00 +21°C° 0 mm 1 mps 717 mmHg 85%
23:00 +21°C° 0 mm 1 mps 717 mmHg 86%

Day after tomorrow, 11 August, Tuesday

Time Temperature Precipitation Wind Pressure Humidity
00:00 +20°C° 0 mm 1 mps 717 mmHg 88%
01:00 +20°C° 0 mm 1 mps 717 mmHg 89%
02:00 +20°C° 0 mm 1 mps 717 mmHg 90%
03:00 +19°C° 0 mm 1 mps 717 mmHg 91%
04:00 +19°C° 0 mm 1 mps 717 mmHg 92%
05:00 +20°C° 0 mm 1 mps 717 mmHg 90%
06:00 +18°C° 0 mm 0 mps 717 mmHg 88%
07:00 +19°C° 0 mm 0 mps 717 mmHg 86%
08:00 +23°C° 0 mm 1 mps 717 mmHg 80%
09:00 +25°C° 0 mm 1 mps 718 mmHg 73%
10:00 +27°C° 0 mm 1 mps 718 mmHg 67%
11:00 +28°C° 0 mm 1 mps 718 mmHg 63%
12:00 +29°C° 0 mm 2 mps 718 mmHg 60%
13:00 +30°C° 0 mm 2 mps 718 mmHg 57%
14:00 +29°C° 0.2 mm 2 mps 718 mmHg 60%
15:00 +29°C° 0.2 mm 2 mps 718 mmHg 63%
16:00 +29°C° 0.2 mm 2 mps 718 mmHg 66%
17:00 +27°C° 0.6 mm 2 mps 718 mmHg 72%
18:00 +26°C° 0.6 mm 2 mps 717 mmHg 78%
19:00 +24°C° 0.6 mm 2 mps 717 mmHg 84%
20:00 +23°C° 0 mm 2 mps 717 mmHg 85%
21:00 +21°C° 0 mm 2 mps 718 mmHg 86%
22:00 +21°C° 0 mm 1 mps 718 mmHg 88%
23:00 +20°C° 0 mm 1 mps 718 mmHg 88%

12 August, Wednesday

Time Temperature Precipitation Wind Pressure Humidity
00:00 +20°C° 0 mm 1 mps 717 mmHg 88%
01:00 +19°C° 0 mm 1 mps 717 mmHg 89%
02:00 +19°C° 0 mm 1 mps 717 mmHg 90%
03:00 +19°C° 0 mm 1 mps 717 mmHg 90%
04:00 +18°C° 0 mm 1 mps 717 mmHg 91%
05:00 +19°C° 0 mm 1 mps 717 mmHg 89%
06:00 +19°C° 0 mm 1 mps 717 mmHg 88%
07:00 +20°C° 0 mm 1 mps 717 mmHg 86%
08:00 +22°C° 0 mm 1 mps 717 mmHg 79%
09:00 +24°C° 0 mm 2 mps 717 mmHg 72%
10:00 +26°C° 0 mm 2 mps 717 mmHg 65%
11:00 +27°C° 0 mm 2 mps 717 mmHg 64%
12:00 +28°C° 0 mm 3 mps 717 mmHg 62%
13:00 +28°C° 0 mm 3 mps 717 mmHg 60%
14:00 +29°C° 0 mm 3 mps 717 mmHg 61%
15:00 +29°C° 0 mm 3 mps 716 mmHg 62%
16:00 +29°C° 0 mm 3 mps 716 mmHg 62%
17:00 +27°C° 0.2 mm 3 mps 716 mmHg 69%
18:00 +26°C° 0.2 mm 2 mps 716 mmHg 76%
19:00 +24°C° 0.2 mm 2 mps 716 mmHg 83%
20:00 +23°C° 0 mm 2 mps 716 mmHg 86%
21:00 +21°C° 0 mm 2 mps 716 mmHg 88%
22:00 +20°C° 0 mm 2 mps 716 mmHg 90%
23:00 +21°C° 0 mm 1 mps 716 mmHg 91%

13 August, Thursday

Time Temperature Precipitation Wind Pressure Humidity
00:00 +20°C° 0 mm 1 mps 716 mmHg 92%
01:00 +20°C° 0 mm 1 mps 716 mmHg 93%
02:00 +19°C° 0.1 mm 1 mps 715 mmHg 93%
03:00 +19°C° 0.1 mm 1 mps 715 mmHg 93%
04:00 +19°C° 0.1 mm 1 mps 715 mmHg 94%
05:00 +19°C° 0.1 mm 1 mps 715 mmHg 92%
06:00 +20°C° 0.1 mm 1 mps 715 mmHg 89%
07:00 +21°C° 0.1 mm 1 mps 716 mmHg 87%
08:00 +23°C° 0.2 mm 1 mps 716 mmHg 79%
09:00 +25°C° 0.2 mm 1 mps 716 mmHg 71%
10:00 +27°C° 0.2 mm 1 mps 716 mmHg 63%
11:00 +28°C° 0.1 mm 1 mps 716 mmHg 60%
12:00 +29°C° 0.1 mm 1 mps 716 mmHg 56%
13:00 +30°C° 0.1 mm 1 mps 716 mmHg 53%
14:00 +29°C° 0.5 mm 2 mps 716 mmHg 58%
15:00 +28°C° 0.5 mm 2 mps 715 mmHg 63%
16:00 +27°C° 0.5 mm 3 mps 715 mmHg 68%
17:00 +25°C° 1.3 mm 3 mps 715 mmHg 73%
18:00 +22°C° 1.3 mm 3 mps 714 mmHg 79%
19:00 +20°C° 1.3 mm 3 mps 714 mmHg 85%
20:00 +19°C° 0.3 mm 3 mps 714 mmHg 85%
21:00 +18°C° 0.3 mm 3 mps 715 mmHg 85%
22:00 +18°C° 0.3 mm 2 mps 715 mmHg 85%
23:00 +18°C° 0.2 mm 3 mps 715 mmHg 87%

14 August, Friday

Time Temperature Precipitation Wind Pressure Humidity
00:00 +18°C° 0.2 mm 3 mps 715 mmHg 89%
01:00 +18°C° 0.2 mm 4 mps 715 mmHg 91%
02:00 +18°C° 1.1 mm 3 mps 715 mmHg 92%
03:00 +18°C° 1.1 mm 3 mps 715 mmHg 94%
04:00 +18°C° 1.1 mm 3 mps 715 mmHg 95%
05:00 +18°C° 1.6 mm 3 mps 715 mmHg 95%
06:00 +18°C° 1.6 mm 3 mps 715 mmHg 95%
07:00 +18°C° 1.6 mm 3 mps 715 mmHg 95%
08:00 +18°C° 1.4 mm 3 mps 715 mmHg 95%
09:00 +18°C° 1.4 mm 3 mps 715 mmHg 95%
10:00 +18°C° 1.4 mm 3 mps 715 mmHg 95%
11:00 +18°C° 0.4 mm 3 mps 716 mmHg 93%
12:00 +19°C° 0.4 mm 3 mps 716 mmHg 92%
13:00 +19°C° 0.4 mm 3 mps 716 mmHg 90%
14:00 +20°C° 0.6 mm 3 mps 716 mmHg 89%
15:00 +20°C° 0.6 mm 3 mps 716 mmHg 88%
16:00 +21°C° 0.6 mm 3 mps 716 mmHg 87%
17:00 +20°C° 1 mm 3 mps 716 mmHg 89%
18:00 +19°C° 1 mm 3 mps 716 mmHg 91%
19:00 +19°C° 1 mm 2 mps 716 mmHg 94%
20:00 +18°C° 0.6 mm 3 mps 716 mmHg 94%
21:00 +18°C° 0.6 mm 3 mps 716 mmHg 95%
22:00 +17°C° 0.6 mm 3 mps 716 mmHg 95%
23:00 +17°C° 0.5 mm 3 mps 716 mmHg 95%
Show more